Temperature
21 19 18 17 17 16 16 15 15 14 14 14 14 13 13 13 13 13 13 13 13 13 13 14 14 14 14 15 15 15 16 16 16 16 17 17 17 17 18 18 18 18 18
21 20 18 17 17 16 15 15 14 14 14 14 13 13 13 13 13 13 13 13 13 13 13 13 13 14 14 14 15 15 15 15 16 16 16 16 17 17 17 18 18 18 18
20 19 18 17 16 16 15 15 14 14 14 14 14 13 13 13 13 13 13 13 13 13 13 13 13 13 14 14 14 14 15 15 15 16 16 16 16 17 17 18 17 17 18
20 19 18 17 16 16 15 14 14 14 13 13 13 13 13 13 13 13 13 13 13 13 13 13 13 13 13 14 14 14 14 15 15 15 16 16 16 16 17 17 17 17 17
20 19 18 17 16 15 15 14 14 13 13 13 13 13 13 13 13 13 13 13 13 13 13 13 13 13 13 14 14 14 14 14 15 15 15 15 16 16 16 16 17 17 17
19 19 18 17 16 15 15 14 14 13 13 13 13 13 13 13 13 13 13 13 13 13 13 13 13 13 13 13 13 14 14 14 14 15 15 15 15 16 16 16 16 16 17
19 18 18 17 16 15 15 14 14 13 13 13 13 13 13 13 13 13 12 13 13 13 12 12 12 13 13 13 13 13 14 14 14 14 15 15 15 15 15 16 16 16 16
19 18 18 17 16 15 15 14 14 13 13 13 13 13 13 12 12 12 12 12 13 12 12 12 12 12 13 13 13 13 13 14 14 14 14 14 15 15 15 15 15 15 15
19 19 18 17 16 16 15 14 14 13 13 13 13 13 13 12 12 12 12 12 12 12 12 12 12 12 13 13 13 13 13 13 14 14 14 14 14 14 15 15 15 15 15
20 19 18 17 16 16 15 15 14 14 14 13 13 13 13 12 12 12 12 12 12 12 12 12 12 12 13 13 13 13 13 13 13 13 14 14 14 14 14 14 14 15 15
20 19 18 17 17 16 15 15 15 14 14 13 13 13 13 12 12 12 12 12 12 12 12 12 12 12 12 12 13 13 13 13 13 13 13 13 14 14 14 14 14 14 14
20 19 18 17 17 16 16 15 15 14 14 13 13 13 13 13 12 12 12 12 12 12 12 12 12 12 12 12 12 12 13 13 13 13 13 13 13 14 14 14 14 14 14
20 19 18 17 17 16 16 15 15 14 14 14 13 13 13 13 13 12 12 12 12 12 12 12 12 12 12 12 12 12 12 12 13 13 13 13 13 13 13 14 14 14 14
20 19 18 18 17 17 16 16 15 15 14 14 13 13 13 13 13 12 12 12 12 12 12 12 12 12 12 12 12 12 12 12 12 13 13 13 13 13 13 13 13 13 14
20 20 19 18 18 17 16 16 15 15 14 14 14 13 13 13 13 12 12 12 12 12 12 12 12 12 12 12 12 12 12 12 12 12 13 13 13 13 13 13 13 13 13
20 20 19 19 18 17 17 16 15 15 15 14 14 13 13 13 13 12 12 12 12 12 12 12 12 12 12 12 12 12 12 12 12 12 12 12 12 13 13 13 13 13 13
20 20 19 19 18 18 17 16 16 15 15 14 14 14 13 13 13 13 12 12 12 12 12 12 12 12 12 12 12 12 12 12 12 12 12 12 12 12 12 12 13 13 13
20 20 19 19 18 18 17 17 16 16 15 15 14 14 13 13 13 13 13 13 12 12 12 12 12 12 12 12 12 12 12 12 12 12 12 12 12 12 12 12 12 12 12
20 19 19 18 18 18 17 17 17 16 15 15 14 14 13 13 13 13 13 13 12 12 12 12 12 12 12 12 12 12 12 12 12 12 12 12 12 12 12 12 12 12 12
19 19 18 18 18 17 17 17 17 16 16 15 14 14 14 13 13 13 13 13 12 12 12 12 12 12 12 12 12 12 12 12 12 12 12 12 12 12 12 12 12 12 12
19 18 18 18 17 17 17 17 17 16 16 15 15 14 14 14 14 13 13 13 13 13 13 12 12 12 12 12 12 12 12 12 12 12 12 12 12 12 12 12 12 12 12
19 18 18 17 17 17 17 16 16 16 16 15 15 14 14 14 14 13 13 13 13 13 13 12 12 12 12 12 12 12 12 12 12 12 12 12 12 12 12 12 12 12 12
18 18 17 17 17 17 16 16 16 16 15 15 15 15 14 14 14 14 14 13 13 13 13 13 12 12 12 12 12 12 12 12 12 12 12 12 12 12 12 12 12 12 12
18 18 17 17 17 17 16 16 16 16 15 15 15 15 15 14 14 14 14 14 13 13 13 13 13 12 12 12 12 12 12 12 12 12 12 12 12 12 12 12 12 12 12
18 17 17 17 17 16 16 16 16 16 15 15 15 15 15 15 15 15 14 14 14 14 14 13 13 13 13 12 12 12 12 12 12 12 12 12 12 12 11 11 12 11 12
17 17 17 16 16 16 16 16 16 16 15 15 15 15 15 15 15 15 15 14 14 14 14 14 14 14 13 13 13 12 12 12 12 12 12 12 11 11 11 11 11 11 11
Wind_Speed
4 6 5 3 4 5 6 6 6 6 5 4 4 4 5 5 4 4 4 5 5 5 4 4 4 3 3 3 4 3 3 3 3 2 2 3 4 3 3 3 2 2 5
3 5 5 4 5 5 5 6 6 6 6 4 4 3 4 4 4 4 4 5 5 5 5 4 3 3 3 3 3 3 2 2 3 3 2 2 2 3 5 3 3 3 2
3 4 4 4 4 4 5 6 5 6 6 6 4 5 4 4 4 4 4 4 5 4 3 4 4 4 3 3 3 3 2 2 3 3 3 3 3 2 2 4 4 4 2
2 3 3 4 4 4 5 6 6 6 7 7 5 6 5 5 5 4 4 4 4 4 4 4 4 4 3 3 4 3 3 3 3 2 3 2 1 2 1 2 4 4 3
2 3 3 4 3 4 5 5 6 6 6 7 6 5 4 4 4 5 5 5 4 4 4 4 4 3 3 3 4 3 3 3 3 3 2 2 2 2 2 2 2 2 2
3 3 3 4 3 4 4 4 4 5 5 6 7 6 6 6 7 6 5 5 4 4 4 4 4 3 2 3 3 3 3 3 3 3 3 3 3 3 2 2 2 2 2
3 2 2 3 2 2 3 4 4 4 5 6 7 7 7 6 6 6 6 5 4 3 4 4 4 4 3 3 3 3 3 3 3 3 3 4 4 3 3 2 2 2 1
4 3 2 2 1 2 2 3 4 4 5 5 6 6 7 5 5 6 6 5 4 3 4 4 4 4 4 4 2 2 3 2 3 3 3 2 3 3 3 3 3 2 2
4 3 3 2 1 1 2 2 3 4 5 5 5 4 5 5 6 6 6 5 5 4 5 5 5 4 3 3 2 2 2 2 2 2 3 2 3 2 3 3 4 4 3
3 4 3 2 2 1 1 1 1 3 3 4 5 5 4 4 5 6 6 6 6 5 5 5 5 4 4 3 2 1 1 2 2 2 2 2 2 2 3 3 3 4 4
3 3 3 2 2 1 0 1 0 1 3 4 5 5 5 5 5 5 6 6 5 5 5 5 5 5 4 4 3 2 1 1 2 2 2 2 2 2 2 2 3 3 3
3 3 4 3 2 0 1 0 1 1 2 2 4 4 4 5 5 6 7 6 5 5 5 5 5 5 5 4 3 2 2 1 2 2 2 2 1 2 2 2 3 3 4
4 4 4 3 2 1 1 0 1 2 2 2 3 4 5 5 6 6 7 7 7 6 5 5 5 6 5 5 5 4 2 1 2 1 1 1 1 2 1 2 2 3 3
4 4 4 4 4 2 1 1 1 1 1 1 2 3 4 4 5 6 6 7 7 7 6 6 6 6 6 6 6 6 4 2 2 1 1 1 0 1 1 1 1 2 2
4 4 4 4 4 3 2 2 1 0 1 0 2 3 4 4 5 6 6 6 7 8 7 6 6 6 5 6 6 5 5 3 2 2 1 1 1 2 1 1 2 2 2
3 3 3 3 4 4 4 4 2 1 1 0 1 1 2 3 4 5 5 5 6 6 6 6 6 6 6 8 9 7 5 4 3 2 2 1 2 2 3 3 3 3 4
3 3 3 3 2 3 3 4 3 2 2 1 1 1 2 3 4 5 5 5 5 5 5 6 6 5 6 8 9 10 5 4 3 2 2 2 1 1 1 2 2 3 4
3 3 2 2 1 2 3 2 3 2 1 1 1 1 1 2 3 4 5 5 4 4 4 4 4 4 5 8 8 9 6 4 3 3 2 2 2 3 3 2 1 1 1
4 3 2 2 2 1 1 1 2 3 2 1 0 0 1 0 2 3 4 4 4 4 4 3 3 3 3 6 7 8 4 3 4 4 5 4 3 5 6 2 1 1 1
4 4 2 2 2 2 1 2 2 2 2 2 1 1 1 1 2 2 3 3 4 4 4 3 3 3 3 4 6 7 3 4 4 3 4 5 5 5 6 3 1 0 0
4 4 2 2 2 2 1 3 1 0 1 1 1 1 2 3 3 2 3 3 3 4 4 4 2 1 1 2 3 4 3 4 4 3 3 3 5 6 6 4 2 0 1
4 3 2 2 2 2 2 3 1 1 1 1 2 3 4 4 3 3 3 4 4 5 5 4 3 2 1 1 1 1 2 3 3 3 2 2 5 6 5 3 2 2 1
4 3 2 2 2 2 2 3 2 1 2 3 4 5 5 5 4 4 4 4 4 4 4 3 3 2 1 2 3 2 2 3 2 2 3 4 5 5 4 2 2 2 1
3 3 3 2 2 3 3 3 2 2 3 5 5 5 5 5 4 4 4 4 3 3 3 3 3 3 2 1 1 1 2 2 2 3 3 5 5 4 4 3 2 1 1
3 2 1 2 2 2 3 3 2 3 4 6 6 6 5 5 4 4 5 5 4 4 4 4 3 3 2 1 2 1 0 1 2 3 3 3 3 2 2 2 2 1 1
3 2 1 1 2 1 0 0 1 3 5 5 5 4 3 3 4 4 5 9 10 10 11 10 7 5 5 5 4 3 3 3 3 3 3 4 4 3 3 2 2 2 2
Wind_Direction
87 92 76 45 16 19 18 4 5 2 3 359 340 335 330 326 320 314 325 326 318 316 303 301 307 304 281 258 252 254 241 226 201 190 255 260 238 247 257 263 270 204 179
38 79 74 46 29 17 15 5 3 358 2 348 331 318 320 311 309 314 321 330 327 321 309 309 310 304 293 276 264 261 235 235 197 173 174 230 256 251 234 234 250 253 209
21 43 51 43 29 23 18 4 359 357 360 348 349 339 330 324 332 328 329 324 316 316 307 306 303 296 291 279 267 252 230 233 231 202 185 184 210 230 243 215 221 233 227
60 64 59 45 22 31 26 5 4 7 3 352 357 341 338 339 328 330 325 323 324 329 322 307 300 292 284 283 273 256 236 220 227 228 223 222 172 174 224 240 218 215 220
85 65 76 64 30 34 29 7 2 9 0 344 331 323 349 337 328 333 331 333 335 334 328 319 302 291 280 275 274 272 252 230 223 218 206 218 223 219 187 207 219 221 225
94 72 74 83 49 36 24 4 7 4 351 338 336 349 355 343 338 340 343 337 331 332 344 338 324 315 305 290 277 270 252 241 232 227 214 199 195 198 194 199 199 216 236
107 90 65 80 58 35 18 355 4 2 356 346 346 350 355 351 346 347 336 334 336 338 346 341 325 325 320 307 296 281 262 250 238 225 221 216 217 203 193 186 186 205 240
129 127 111 99 78 38 19 358 5 356 347 338 347 357 358 355 346 338 334 339 333 334 345 331 322 318 318 312 312 295 277 259 247 238 228 216 218 207 197 188 176 181 214
146 149 136 125 106 63 30 14 1 345 342 343 350 359 352 350 341 339 340 336 334 340 345 328 321 320 322 314 312 292 283 283 253 240 239 231 222 214 199 188 181 173 190
151 142 135 127 116 115 109 54 338 328 336 346 349 354 355 357 344 339 343 345 339 341 333 332 334 333 330 317 308 291 276 289 275 240 231 231 226 219 204 188 191 188 186
144 138 134 125 116 107 158 170 260 351 6 2 350 356 357 353 346 343 348 344 341 343 340 341 340 338 337 333 332 327 329 300 294 278 246 239 224 208 208 198 191 196 183
142 147 139 135 128 168 291 315 22 44 27 356 344 359 352 354 353 349 347 339 339 339 342 343 341 343 342 337 336 327 317 302 298 301 288 265 249 220 216 205 203 199 194
169 169 150 152 165 207 215 326 43 34 21 4 358 0 358 2 351 343 342 343 346 347 350 353 356 350 349 348 349 344 330 310 295 294 307 308 292 260 255 235 217 199 199
174 164 155 174 173 208 171 117 73 45 21 1 345 355 352 359 350 343 344 348 348 349 350 358 3 4 6 6 2 349 338 328 317 314 315 327 237 257 272 243 246 207 190
178 178 179 183 177 184 152 134 135 268 300 343 3 12 4 6 356 344 342 353 353 351 351 1 4 8 14 14 7 347 336 329 318 310 293 279 189 210 224 218 222 213 196
185 189 182 173 193 175 159 164 172 207 248 221 47 27 5 355 344 334 339 351 351 346 353 360 9 13 17 11 10 356 329 320 315 312 310 273 212 197 219 222 223 204 194
172 173 192 186 195 153 146 156 167 193 218 170 118 58 14 352 342 343 346 342 344 350 355 360 11 17 16 9 4 357 340 322 321 322 319 327 33 27 337 264 237 216 208
149 160 185 174 168 152 142 153 168 175 165 98 74 108 54 351 340 338 332 331 338 349 352 355 356 359 8 9 5 354 343 343 352 9 8 23 45 26 11 336 296 178 181
118 126 148 149 162 128 124 189 196 163 152 130 296 147 132 290 310 318 322 325 336 338 335 337 335 348 14 17 11 2 337 345 7 27 34 41 45 22 12 353 323 152 170
98 109 133 160 153 138 139 256 246 159 150 162 220 201 191 244 265 291 303 304 309 313 316 321 336 358 20 33 21 9 347 359 4 19 42 47 37 17 6 350 350 104 289
110 125 158 163 142 142 186 255 268 110 119 139 195 232 232 241 239 250 271 286 293 303 306 310 310 330 19 56 44 26 13 357 351 3 16 25 21 13 0 356 1 323 254
132 145 168 171 167 174 222 259 249 139 125 171 237 254 254 259 258 238 254 266 276 283 284 288 291 270 173 128 114 48 10 349 346 347 1 4 358 355 350 350 341 343 12
144 156 179 194 190 186 218 266 246 192 214 227 237 243 245 242 234 235 249 257 262 267 276 281 287 283 214 163 177 204 294 324 325 326 326 322 323 330 327 312 311 336 6
132 151 180 210 213 194 194 244 260 241 239 243 246 245 242 245 235 221 231 243 256 267 277 283 284 280 271 198 168 214 246 277 296 298 298 298 297 293 296 298 283 247 206
110 125 176 226 248 219 195 212 231 251 261 260 255 250 238 235 242 235 226 231 233 224 232 255 275 290 285 204 135 147 316 349 350 329 308 286 276 266 255 256 247 217 175
89 102 119 284 299 312 355 334 244 252 270 277 279 278 270 249 235 241 251 237 232 233 229 228 231 246 240 206 205 217 245 274 308 322 286 285 277 265 253 244 242 227 201
Height
1528 1528 1528 1529 1528 1527 1525 1523 1521 1519 1516 1514 1511 1509 1507 1505 1504 1502 1501 1499 1498 1497 1497 1497 1497 1497 1498 1499 1500 1501 1502 1504 1506 1508 1509 1510 1512 1514 1516 1518 1520 1522 1525
1527 1528 1528 1528 1527 1526 1524 1523 1520 1518 1516 1513 1511 1509 1507 1504 1503 1501 1499 1498 1496 1495 1495 1494 1494 1494 1495 1496 1497 1498 1499 1501 1503 1504 1506 1507 1509 1510 1513 1515 1517 1519 1522
1526 1527 1527 1527 1526 1525 1523 1522 1520 1518 1515 1513 1510 1508 1506 1503 1501 1499 1497 1496 1495 1494 1493 1492 1492 1492 1492 1493 1494 1495 1496 1498 1499 1501 1504 1505 1505 1507 1509 1511 1513 1515 1518
1525 1526 1526 1526 1525 1524 1523 1521 1519 1517 1514 1512 1510 1507 1505 1503 1501 1499 1496 1495 1494 1492 1491 1490 1490 1489 1490 1491 1492 1493 1494 1495 1496 1498 1500 1502 1503 1505 1506 1508 1510 1512 1514
1524 1525 1525 1525 1525 1523 1522 1520 1518 1516 1514 1511 1509 1507 1505 1502 1500 1498 1496 1494 1493 1491 1490 1488 1488 1488 1488 1488 1489 1490 1491 1492 1493 1495 1497 1498 1500 1502 1503 1504 1507 1509 1511
1523 1524 1524 1524 1523 1522 1521 1520 1518 1515 1513 1511 1509 1507 1504 1502 1499 1497 1495 1493 1492 1490 1488 1487 1486 1486 1486 1486 1486 1487 1488 1489 1490 1492 1493 1495 1497 1499 1500 1501 1503 1505 1507
1522 1523 1523 1523 1522 1521 1520 1519 1517 1515 1513 1511 1509 1507 1504 1502 1499 1497 1495 1493 1491 1489 1487 1486 1485 1484 1484 1484 1484 1485 1486 1486 1488 1489 1490 1492 1494 1496 1498 1499 1501 1502 1504
1520 1521 1522 1522 1521 1521 1519 1518 1516 1514 1512 1510 1508 1506 1504 1501 1499 1497 1495 1492 1490 1489 1487 1485 1484 1483 1482 1482 1482 1482 1483 1484 1485 1486 1488 1489 1491 1492 1494 1496 1498 1500 1501
1519 1520 1521 1521 1520 1520 1519 1517 1516 1514 1512 1510 1508 1506 1503 1501 1498 1496 1494 1492 1490 1488 1486 1484 1483 1482 1481 1480 1480 1480 1481 1482 1483 1484 1485 1487 1488 1490 1491 1493 1495 1498 1498
1518 1519 1519 1519 1519 1519 1518 1516 1515 1514 1512 1510 1508 1506 1503 1501 1498 1496 1494 1491 1489 1487 1485 1484 1482 1481 1480 1479 1479 1479 1479 1480 1481 1482 1483 1484 1485 1487 1488 1490 1492 1493 1495
1516 1517 1518 1518 1518 1518 1517 1516 1515 1513 1512 1510 1508 1506 1503 1501 1499 1496 1494 1492 1489 1487 1485 1483 1482 1480 1479 1478 1478 1478 1478 1479 1479 1480 1481 1482 1483 1484 1485 1487 1488 1490 1492
1515 1516 1517 1517 1517 1517 1516 1516 1514 1513 1511 1510 1508 1506 1503 1501 1499 1497 1494 1492 1490 1487 1485 1483 1481 1480 1478 1477 1477 1477 1477 1477 1477 1478 1479 1480 1481 1482 1483 1484 1485 1487 1489
1514 1515 1515 1516 1516 1516 1515 1515 1514 1513 1511 1510 1508 1506 1504 1501 1499 1497 1495 1492 1490 1487 1485 1483 1481 1479 1478 1476 1476 1476 1476 1476 1476 1477 1477 1478 1479 1479 1480 1481 1483 1484 1486
1512 1513 1514 1514 1514 1515 1514 1514 1513 1512 1511 1509 1508 1506 1504 1502 1499 1497 1495 1493 1490 1488 1485 1483 1481 1479 1477 1476 1475 1475 1475 1475 1475 1475 1475 1476 1476 1477 1477 1478 1480 1481 1483
1510 1511 1512 1513 1513 1513 1513 1513 1512 1512 1511 1509 1508 1506 1504 1502 1500 1498 1496 1493 1490 1488 1486 1483 1480 1478 1477 1476 1475 1474 1474 1474 1474 1474 1474 1473 1473 1474 1475 1475 1477 1478 1480
1509 1510 1511 1511 1512 1512 1512 1511 1511 1511 1510 1509 1508 1506 1504 1502 1500 1498 1496 1493 1491 1489 1486 1483 1480 1478 1477 1476 1475 1474 1473 1473 1472 1472 1472 1472 1471 1472 1472 1473 1474 1475 1476
1507 1508 1509 1510 1510 1511 1511 1510 1510 1510 1509 1509 1507 1506 1504 1502 1500 1498 1496 1494 1492 1489 1486 1484 1481 1479 1478 1476 1475 1474 1473 1472 1471 1471 1471 1471 1470 1470 1471 1471 1472 1473 1474
1505 1506 1507 1508 1509 1510 1510 1510 1509 1509 1509 1508 1507 1505 1503 1502 1500 1498 1496 1494 1492 1490 1487 1485 1483 1481 1479 1477 1476 1474 1473 1472 1471 1471 1471 1470 1470 1470 1469 1470 1470 1470 1471
1503 1504 1506 1507 1508 1508 1509 1509 1509 1508 1508 1507 1506 1505 1503 1501 1499 1498 1496 1494 1493 1491 1488 1486 1484 1482 1480 1478 1477 1475 1474 1473 1472 1471 1471 1470 1469 1469 1469 1469 1468 1469 1469
1502 1503 1504 1505 1506 1507 1507 1507 1508 1507 1506 1505 1505 1503 1502 1501 1499 1497 1496 1494 1493 1491 1489 1487 1485 1483 1481 1480 1478 1476 1475 1473 1472 1471 1471 1470 1470 1469 1468 1468 1467 1467 1467
1501 1502 1503 1504 1505 1505 1506 1506 1506 1506 1505 1504 1503 1502 1501 1500 1498 1497 1495 1494 1492 1491 1489 1488 1486 1484 1482 1480 1479 1477 1475 1474 1473 1472 1471 1470 1469 1468 1468 1467 1466 1466 1466
1500 1501 1502 1503 1503 1504 1504 1504 1504 1504 1503 1502 1501 1500 1499 1498 1497 1496 1494 1493 1492 1490 1489 1488 1486 1484 1482 1481 1479 1477 1476 1474 1473 1472 1471 1470 1469 1468 1467 1466 1466 1465 1465
1499 1499 1500 1501 1502 1502 1502 1502 1502 1502 1501 1500 1499 1499 1498 1497 1496 1495 1493 1492 1491 1490 1488 1487 1486 1484 1483 1481 1479 1477 1476 1475 1473 1472 1471 1470 1469 1468 1467 1466 1466 1465 1465
1497 1498 1499 1499 1500 1500 1500 1500 1500 1499 1499 1498 1497 1497 1496 1495 1494 1493 1492 1490 1489 1488 1487 1486 1484 1483 1482 1480 1478 1477 1475 1474 1473 1471 1470 1470 1469 1468 1467 1466 1466 1465 1465
1496 1496 1497 1497 1498 1498 1498 1497 1497 1497 1496 1496 1495 1495 1494 1493 1491 1490 1489 1488 1487 1486 1485 1483 1482 1481 1480 1479 1477 1476 1474 1473 1472 1470 1470 1469 1468 1467 1467 1466 1466 1466 1465
1494 1495 1495 1496 1496 1496 1496 1495 1494 1494 1493 1493 1493 1492 1491 1490 1489 1487 1486 1485 1484 1483 1482 1481 1480 1478 1477 1476 1475 1474 1473 1472 1470 1469 1468 1468 1467 1466 1466 1466 1465 1465 1465